This demonstration page uses our WeatherBlox Daily Observations layout. Learn more.

Left ArrowRight Arrow

34.02893, -84.19858

Hourly Observations for February 3, 2020

Temp ( °F °C ) Dew Point ( °F °C ) Humidity (%) Winds ( mph kmh ) Pressure ( in mb ) Visibility ( mi km ) Precip ( " mm )
12:53 am 00:53 Clear 48 8.9 34 1.1 58 58 Calm 30.04 1017 10 16 0.00 0.00
1:53 am 01:53 Clear 42 5.6 33 0.6 71 71 WNW 3 6 30.03 1017 10 16 0.00 0.00
2:53 am 02:53 Clear 41 5 34 1.1 76 76 Calm 30.04 1017 10 16 0.00 0.00
3:53 am 03:53 Clear 39 3.9 33 0.6 79 79 Calm 30.06 1018 10 16 0.00 0.00
4:53 am 04:53 Clear 39 3.9 34 1.1 82 82 Calm 30.06 1018 10 16 0.00 0.00
5:53 am 05:53 Clear 37 2.8 34 1.1 89 89 Calm 30.06 1018 10 16 0.00 0.00
6:53 am 06:53 Clear 36 2.2 33 0.6 89 89 Calm 30.08 1019 10 16 0.00 0.00
7:53 am 07:53 Sunny 37 2.8 34 1.1 89 89 S 3 6 30.10 1019 10 16 0.00 0.00
8:53 am 08:53 Sunny 43 6.1 38 3.3 82 82 Calm 30.11 1020 10 16 0.00 0.00
9:53 am 09:53 Sunny 51 10.6 39 3.9 64 64 SW 3 6 30.12 1020 10 16 0.00 0.00
10:53 am 10:53 Sunny 59 15 40 4.4 49 49 W 9 15 30.12 1020 10 16 0.00 0.00
11:53 am 11:53 Sunny 63 17.2 40 4.4 43 43 VRB 3 6 30.11 1020 10 16 0.00 0.00
12:53 pm 12:53 Sunny 68 20 40 4.4 36 36 VRB 3 6 30.08 1019 10 16 0.00 0.00
1:53 pm 13:53 Sunny 70 21.1 40 4.4 34 34 SW 7 11 30.05 1018 10 16 0.00 0.00
2:53 pm 14:53 Sunny 72 22.2 38 3.3 29 29 SW 10 17 30.02 1017 10 16 0.00 0.00
3:53 pm 15:53 Sunny 74 23.3 37 2.8 26 26 SSW 15 24 30.01 1016 10 16 0.00 0.00
4:53 pm 16:53 Sunny 72 22.2 34 1.1 25 25 SW 14 22 30.01 1016 10 16 0.00 0.00
5:53 pm 17:53 Sunny 69 20.6 34 1.1 27 27 S 9 15 30.02 1017 10 16 0.00 0.00
6:53 pm 18:53 Clear 66 18.9 36 2.2 33 33 S 6 9 30.04 1017 10 16 0.00 0.00
7:53 pm 19:53 Clear 65 18.3 36 2.2 34 34 S 8 13 30.05 1018 10 16 0.00 0.00
8:53 pm 20:53 Clear 63 17.2 38 3.3 40 40 SSW 10 17 30.06 1018 10 16 0.00 0.00
9:53 pm 21:53 Clear 63 17.2 39 3.9 41 41 SSW 13 20 30.06 1018 10 16 0.00 0.00
10:53 pm 22:53 Clear 62 16.7 40 4.4 44 44 S 10 17 30.04 1017 10 16 0.00 0.00
11:53 pm 23:53 Clear 60 15.6 41 5 50 50 S 7 11 30.03 1017 10 16 0.00 0.00

Powered by AerisWeather